Language: 


Des rapports , des résumés tant et plus, au choix de chacun....


Données statistiques de la station
Quotidien Rapport Mars 18, 2017 Unités:  Métrique    Anglais   les deux
« Précédent Jour
Suivant Jour »
Quotidien Hebdomadaire Mensuel Annuel Actuel
  Haut: Bas: Moyen:
Température: 14.3 °C 8.3 °C 11.5 °C
Pt de rosée: 12.3 °C 7.6 °C 10.7 °C
Humidité: 98 % 85 % 95 %
Vitesse du vent: 46.5 km/h 11.9 km/h 24.6 km/h
Rafales: 56.5 km/h - -
Vent:- - West
Pression: 1012.1 hPa 1006.0 hPa -
Précipitation: 7.1 mm    
Historical Graphs
 
 
Données statistiques pour Mars 18, 2017
Heure Température Point de rosée Pression Vent Vitesse du vent Refales Humidité Pluie (taux horaire)
00:01 8.3 °C 7.6 °C 1011.1 hPa WSW 38.5 km/h 42.5 km/h 95 % 0.5 mm
00:06 8.4 °C 7.7 °C 1011.1 hPa WSW 26.7 km/h 43.1 km/h 95 % 0.5 mm
00:11 8.4 °C 7.7 °C 1010.0 hPa WSW 37.5 km/h 43.1 km/h 95 % 0.5 mm
00:16 8.4 °C 7.7 °C 1010.0 hPa WSW 37.0 km/h 48.3 km/h 95 % 0.5 mm
00:21 8.4 °C 7.7 °C 1010.0 hPa WSW 33.1 km/h 48.3 km/h 95 % 0.3 mm
00:26 8.4 °C 7.7 °C 1010.0 hPa West 44.6 km/h 48.9 km/h 95 % 0.3 mm
00:31 8.5 °C 7.9 °C 1010.0 hPa WSW 45.7 km/h 54.1 km/h 96 % 0.3 mm
00:36 8.5 °C 7.9 °C 1010.0 hPa West 36.4 km/h 54.1 km/h 96 % 0.3 mm
00:41 8.5 °C 7.9 °C 1009.0 hPa West 40.7 km/h 51.2 km/h 96 % 0.3 mm
00:46 8.6 °C 8.0 °C 1009.0 hPa WSW 29.9 km/h 45.1 km/h 96 % 0.3 mm
00:51 8.6 °C 8.0 °C 1009.0 hPa WSW 28.0 km/h 44.2 km/h 96 % 0.3 mm
00:56 8.6 °C 8.0 °C 1009.0 hPa WNW 27.7 km/h 42.2 km/h 96 % 0.3 mm
01:01 8.6 °C 8.0 °C 1009.0 hPa WSW 20.6 km/h 42.8 km/h 96 % 0.0 mm
01:06 8.6 °C 8.0 °C 1009.0 hPa WSW 42.2 km/h 42.8 km/h 96 % 0.0 mm
01:11 8.5 °C 8.1 °C 1009.0 hPa WSW 35.6 km/h 42.2 km/h 97 % 0.3 mm
01:16 8.5 °C 8.1 °C 1009.0 hPa WSW 37.5 km/h 42.2 km/h 97 % 0.3 mm
01:21 8.4 °C 8.0 °C 1009.0 hPa WSW 37.8 km/h 51.8 km/h 97 % 0.3 mm
01:26 8.4 °C 8.1 °C 1009.0 hPa WSW 33.8 km/h 51.8 km/h 98 % 0.3 mm
01:31 8.5 °C 8.2 °C 1009.0 hPa WSW 25.9 km/h 46.8 km/h 98 % 0.3 mm
01:36 8.5 °C 8.2 °C 1009.0 hPa WSW 30.9 km/h 46.8 km/h 98 % 0.3 mm
01:41 8.5 °C 8.2 °C 1009.0 hPa WSW 31.7 km/h 41.7 km/h 98 % 0.3 mm
01:46 8.6 °C 8.3 °C 1009.0 hPa WSW 30.2 km/h 52.6 km/h 98 % 0.3 mm
01:51 8.6 °C 8.3 °C 1009.0 hPa West 23.3 km/h 52.6 km/h 98 % 0.3 mm
01:56 8.7 °C 8.4 °C 1009.0 hPa WSW 34.3 km/h 41.7 km/h 98 % 0.8 mm
02:02 8.8 °C 8.5 °C 1009.0 hPa WSW 28.0 km/h 42.8 km/h 98 % 0.8 mm
02:07 8.8 °C 8.5 °C 1009.0 hPa West 22.7 km/h 42.8 km/h 98 % 0.5 mm
02:12 8.9 °C 8.6 °C 1009.0 hPa WSW 42.8 km/h 42.8 km/h 98 % 0.3 mm
02:17 8.9 °C 8.6 °C 1009.0 hPa West 46.5 km/h 46.5 km/h 98 % 0.5 mm
02:22 9.0 °C 8.7 °C 1008.0 hPa West 37.5 km/h 48.3 km/h 98 % 0.5 mm
02:27 9.0 °C 8.7 °C 1008.0 hPa West 44.2 km/h 48.3 km/h 98 % 0.5 mm
02:32 9.0 °C 8.7 °C 1008.0 hPa WSW 37.0 km/h 47.1 km/h 98 % 0.5 mm
02:37 9.1 °C 8.8 °C 1008.0 hPa West 28.5 km/h 49.2 km/h 98 % 0.8 mm
02:42 9.1 °C 8.8 °C 1008.0 hPa West 45.1 km/h 56.5 km/h 98 % 0.8 mm
02:47 9.2 °C 8.9 °C 1008.0 hPa SW 41.7 km/h 56.5 km/h 98 % 0.8 mm
02:52 9.2 °C 8.9 °C 1008.0 hPa WSW 32.8 km/h 45.1 km/h 98 % 0.8 mm
02:57 9.2 °C 8.9 °C 1008.0 hPa West 27.0 km/h 53.6 km/h 98 % 0.5 mm
03:02 9.2 °C 8.9 °C 1008.0 hPa West 28.5 km/h 53.6 km/h 98 % 0.5 mm
03:07 9.3 °C 9.0 °C 1008.0 hPa West 36.7 km/h 52.1 km/h 98 % 0.5 mm
03:12 9.3 °C 9.0 °C 1008.0 hPa West 36.4 km/h 36.7 km/h 98 % 0.5 mm
03:17 9.4 °C 9.1 °C 1008.0 hPa WSW 38.9 km/h 38.9 km/h 98 % 0.5 mm
03:22 9.4 °C 9.1 °C 1007.0 hPa WSW 36.0 km/h 41.4 km/h 98 % 0.5 mm
03:27 9.4 °C 9.1 °C 1007.0 hPa WSW 28.8 km/h 47.9 km/h 98 % 0.5 mm
03:32 9.4 °C 9.1 °C 1007.0 hPa West 27.4 km/h 47.9 km/h 98 % 0.5 mm
03:37 9.5 °C 9.2 °C 1007.0 hPa WSW 34.6 km/h 37.5 km/h 98 % 0.5 mm
03:42 9.6 °C 9.3 °C 1007.0 hPa WSW 32.8 km/h 46.0 km/h 98 % 0.5 mm
03:47 9.6 °C 9.3 °C 1007.0 hPa West 39.3 km/h 46.0 km/h 98 % 0.5 mm
03:52 9.7 °C 9.4 °C 1007.0 hPa West 38.1 km/h 42.5 km/h 98 % 0.5 mm
03:57 9.7 °C 9.4 °C 1007.0 hPa WSW 28.0 km/h 38.5 km/h 98 % 0.5 mm
04:02 9.8 °C 9.5 °C 1007.0 hPa West 28.5 km/h 39.3 km/h 98 % 0.5 mm
04:07 9.8 °C 9.5 °C 1007.0 hPa WSW 39.6 km/h 46.0 km/h 98 % 0.3 mm
04:12 9.9 °C 9.6 °C 1007.0 hPa West 33.5 km/h 46.0 km/h 98 % 0.3 mm
04:17 9.9 °C 9.6 °C 1007.0 hPa West 28.5 km/h 46.0 km/h 98 % 0.3 mm
04:22 9.9 °C 9.6 °C 1007.0 hPa West 20.9 km/h 46.0 km/h 98 % 0.3 mm
04:27 10.0 °C 9.7 °C 1007.0 hPa WSW 19.8 km/h 38.1 km/h 98 % 0.3 mm
04:32 10.0 °C 9.7 °C 1007.0 hPa West 30.2 km/h 38.9 km/h 98 % 0.3 mm
04:37 10.0 °C 9.7 °C 1007.0 hPa West 32.8 km/h 41.7 km/h 98 % 0.3 mm
04:42 10.1 °C 9.8 °C 1007.0 hPa West 27.0 km/h 41.7 km/h 98 % 0.3 mm
04:47 10.0 °C 9.7 °C 1007.0 hPa West 22.7 km/h 38.1 km/h 98 % 0.3 mm
04:52 10.1 °C 9.8 °C 1007.0 hPa West 37.8 km/h 37.8 km/h 98 % 0.3 mm
04:57 10.1 °C 9.8 °C 1007.0 hPa WSW 27.7 km/h 37.8 km/h 98 % 0.3 mm
05:03 10.1 °C 9.8 °C 1007.0 hPa West 19.5 km/h 36.4 km/h 98 % 0.3 mm
05:08 10.2 °C 9.9 °C 1007.0 hPa WSW 24.8 km/h 32.8 km/h 98 % 0.3 mm
05:13 10.2 °C 9.9 °C 1007.0 hPa West 25.3 km/h 37.0 km/h 98 % 0.3 mm
05:18 10.2 °C 9.9 °C 1007.0 hPa WSW 38.5 km/h 38.5 km/h 98 % 0.3 mm
05:23 10.2 °C 9.9 °C 1007.0 hPa WSW 14.3 km/h 38.5 km/h 98 % 0.3 mm
05:28 10.2 °C 9.9 °C 1007.0 hPa West 18.0 km/h 39.3 km/h 98 % 0.3 mm
05:33 10.3 °C 10.0 °C 1007.0 hPa West 24.5 km/h 39.3 km/h 98 % 0.0 mm
05:38 10.3 °C 10.0 °C 1006.0 hPa West 31.7 km/h 37.5 km/h 98 % 0.0 mm
05:43 10.3 °C 10.0 °C 1006.0 hPa West 24.5 km/h 37.5 km/h 98 % 0.0 mm
05:48 10.4 °C 10.1 °C 1006.0 hPa West 25.9 km/h 31.7 km/h 98 % 0.0 mm
05:53 10.4 °C 10.1 °C 1006.0 hPa West 17.2 km/h 33.1 km/h 98 % 0.0 mm
05:58 10.5 °C 10.2 °C 1006.0 hPa West 28.0 km/h 35.6 km/h 98 % 0.0 mm
06:03 10.5 °C 10.2 °C 1006.0 hPa West 33.1 km/h 35.6 km/h 98 % 0.0 mm
06:08 10.5 °C 10.2 °C 1006.0 hPa NW 32.0 km/h 33.1 km/h 98 % 0.0 mm
06:13 10.5 °C 10.2 °C 1006.0 hPa West 28.0 km/h 33.1 km/h 98 % 0.0 mm
06:18 10.5 °C 10.2 °C 1006.0 hPa NW 27.4 km/h 32.0 km/h 98 % 0.0 mm
06:23 10.5 °C 10.2 °C 1007.0 hPa WSW 19.8 km/h 32.0 km/h 98 % 0.0 mm
06:28 10.6 °C 10.3 °C 1007.0 hPa WSW 25.6 km/h 30.9 km/h 98 % 0.3 mm
06:33 10.6 °C 10.3 °C 1007.0 hPa WSW 20.9 km/h 31.4 km/h 98 % 0.3 mm
06:38 10.6 °C 10.3 °C 1007.0 hPa West 17.2 km/h 31.4 km/h 98 % 0.8 mm
06:43 10.6 °C 10.3 °C 1007.0 hPa West 17.7 km/h 32.0 km/h 98 % 0.8 mm
06:48 10.6 °C 10.3 °C 1007.0 hPa West 12.6 km/h 32.0 km/h 98 % 1.0 mm
06:53 10.6 °C 10.3 °C 1007.0 hPa West 25.3 km/h 27.4 km/h 98 % 1.0 mm
06:58 10.6 °C 10.3 °C 1007.0 hPa West 25.3 km/h 28.0 km/h 98 % 1.3 mm
07:03 10.6 °C 10.3 °C 1007.0 hPa West 16.3 km/h 28.0 km/h 98 % 1.3 mm
07:08 10.6 °C 10.3 °C 1008.0 hPa West 16.6 km/h 29.9 km/h 98 % 1.5 mm
07:13 10.6 °C 10.3 °C 1008.0 hPa WSW 16.6 km/h 29.9 km/h 98 % 1.5 mm
07:18 10.7 °C 10.4 °C 1008.0 hPa West 24.5 km/h 25.3 km/h 98 % 1.8 mm
07:23 10.7 °C 10.4 °C 1008.0 hPa West 20.6 km/h 25.3 km/h 98 % 2.0 mm
07:28 10.7 °C 10.4 °C 1008.0 hPa West 20.1 km/h 27.4 km/h 98 % 1.8 mm
07:33 10.7 °C 10.4 °C 1008.0 hPa West 25.9 km/h 27.4 km/h 98 % 2.0 mm
07:38 10.7 °C 10.4 °C 1008.0 hPa West 20.1 km/h 27.4 km/h 98 % 2.0 mm
07:43 10.7 °C 10.4 °C 1008.0 hPa West 20.6 km/h 27.4 km/h 98 % 1.8 mm
07:49 10.7 °C 10.4 °C 1008.0 hPa West 17.7 km/h 28.0 km/h 98 % 2.0 mm
07:54 10.7 °C 10.4 °C 1008.0 hPa West 17.2 km/h 30.6 km/h 98 % 2.3 mm
07:59 10.8 °C 10.3 °C 1008.0 hPa West 32.0 km/h 32.0 km/h 97 % 2.0 mm
08:04 10.8 °C 10.3 °C 1008.0 hPa West 18.0 km/h 32.0 km/h 97 % 2.3 mm
08:09 10.8 °C 10.3 °C 1008.0 hPa West 24.5 km/h 32.0 km/h 97 % 2.0 mm
08:14 10.8 °C 10.3 °C 1008.0 hPa WSW 13.7 km/h 31.7 km/h 97 % 2.3 mm
08:19 10.8 °C 10.3 °C 1008.0 hPa WSW 28.5 km/h 28.5 km/h 97 % 2.0 mm
08:24 10.9 °C 10.4 °C 1009.0 hPa WSW 20.6 km/h 28.5 km/h 97 % 2.0 mm
08:29 10.9 °C 10.4 °C 1009.0 hPa West 23.3 km/h 28.5 km/h 97 % 2.0 mm
08:34 10.9 °C 10.4 °C 1009.0 hPa WSW 25.9 km/h 28.0 km/h 97 % 2.0 mm
08:39 10.9 °C 10.4 °C 1009.0 hPa WSW 28.5 km/h 28.5 km/h 97 % 1.8 mm
08:44 11.0 °C 10.5 °C 1009.0 hPa West 19.1 km/h 30.2 km/h 97 % 1.5 mm
08:49 11.0 °C 10.5 °C 1009.0 hPa West 21.2 km/h 35.6 km/h 97 % 1.8 mm
08:54 11.1 °C 10.6 °C 1009.0 hPa WSW 20.9 km/h 35.6 km/h 97 % 1.5 mm
08:59 11.1 °C 10.6 °C 1009.0 hPa West 20.1 km/h 28.8 km/h 97 % 1.5 mm
09:04 11.1 °C 10.6 °C 1009.0 hPa West 27.7 km/h 27.7 km/h 97 % 1.3 mm
09:09 11.1 °C 10.6 °C 1008.0 hPa West 23.0 km/h 27.7 km/h 97 % 1.3 mm
09:14 11.1 °C 10.6 °C 1008.0 hPa West 23.8 km/h 27.7 km/h 97 % 1.0 mm
09:19 11.2 °C 10.7 °C 1008.0 hPa WSW 25.9 km/h 27.7 km/h 97 % 1.3 mm
09:24 11.2 °C 10.7 °C 1009.0 hPa WSW 20.6 km/h 27.7 km/h 97 % 1.0 mm
09:29 11.2 °C 10.7 °C 1009.0 hPa West 21.2 km/h 26.7 km/h 97 % 1.0 mm
09:34 11.3 °C 10.8 °C 1009.0 hPa West 16.3 km/h 25.6 km/h 97 % 0.5 mm
09:39 11.3 °C 10.8 °C 1009.0 hPa West 22.4 km/h 24.5 km/h 97 % 0.5 mm
09:44 11.3 °C 10.8 °C 1009.0 hPa West 25.6 km/h 33.1 km/h 97 % 0.5 mm
09:49 11.4 °C 10.9 °C 1009.0 hPa West 13.0 km/h 33.1 km/h 97 % 0.3 mm
09:54 11.6 °C 11.1 °C 1009.0 hPa WSW 23.8 km/h 27.7 km/h 97 % 0.3 mm
09:59 11.7 °C 11.2 °C 1009.0 hPa WNW 26.7 km/h 28.5 km/h 97 % 0.3 mm
10:04 11.8 °C 11.3 °C 1009.0 hPa West 19.8 km/h 36.4 km/h 97 % 0.3 mm
10:09 11.9 °C 11.5 °C 1009.0 hPa West 28.8 km/h 36.4 km/h 97 % 0.3 mm
10:14 11.9 °C 11.5 °C 1009.0 hPa WSW 20.9 km/h 30.9 km/h 97 % 0.3 mm
10:19 12.2 °C 11.7 °C 1009.0 hPa West 20.1 km/h 30.9 km/h 97 % 0.0 mm
10:24 12.3 °C 11.9 °C 1009.0 hPa WSW 25.6 km/h 31.7 km/h 97 % 0.0 mm
10:29 12.6 °C 12.1 °C 1009.0 hPa West 17.7 km/h 31.7 km/h 97 % 0.0 mm
10:34 12.7 °C 12.2 °C 1009.0 hPa West 27.0 km/h 31.4 km/h 97 % 0.0 mm
10:39 12.7 °C 12.2 °C 1010.0 hPa West 25.6 km/h 38.5 km/h 97 % 0.0 mm
10:44 12.7 °C 12.0 °C 1010.0 hPa West 38.5 km/h 38.5 km/h 96 % 0.0 mm
10:49 12.7 °C 12.0 °C 1010.0 hPa West 28.5 km/h 38.5 km/h 96 % 0.0 mm
10:54 12.7 °C 11.9 °C 1010.0 hPa West 27.4 km/h 36.7 km/h 95 % 0.0 mm
10:59 12.8 °C 12.1 °C 1010.0 hPa West 21.6 km/h 31.4 km/h 95 % 0.0 mm
11:04 12.8 °C 11.9 °C 1010.0 hPa West 20.9 km/h 32.8 km/h 94 % 0.0 mm
11:09 12.9 °C 12.0 °C 1010.0 hPa West 20.9 km/h 32.8 km/h 94 % 0.0 mm
11:14 13.1 °C 12.2 °C 1010.0 hPa WSW 28.5 km/h 31.7 km/h 94 % 0.0 mm
11:19 13.1 °C 12.1 °C 1010.0 hPa West 16.9 km/h 31.7 km/h 94 % 0.0 mm
11:24 13.1 °C 11.9 °C 1010.0 hPa WSW 28.5 km/h 31.7 km/h 93 % 0.0 mm
11:29 13.1 °C 11.9 °C 1010.0 hPa West 20.9 km/h 43.9 km/h 93 % 0.0 mm
11:34 13.2 °C 12.1 °C 1010.0 hPa WSW 34.3 km/h 43.9 km/h 93 % 0.0 mm
11:39 13.3 °C 12.2 °C 1010.0 hPa West 27.7 km/h 36.7 km/h 93 % 0.0 mm
11:44 13.4 °C 12.2 °C 1010.0 hPa West 24.8 km/h 36.7 km/h 92 % 0.0 mm
11:49 13.6 °C 12.3 °C 1010.0 hPa WSW 27.7 km/h 39.3 km/h 92 % 0.0 mm
11:54 13.7 °C 12.1 °C 1010.0 hPa West 28.0 km/h 39.3 km/h 90 % 0.0 mm
11:59 13.7 °C 12.1 °C 1010.0 hPa West 22.7 km/h 38.1 km/h 90 % 0.0 mm
12:04 13.8 °C 12.2 °C 1010.0 hPa West 28.0 km/h 36.4 km/h 90 % 0.0 mm
12:09 13.9 °C 12.1 °C 1010.0 hPa WSW 24.8 km/h 44.6 km/h 89 % 0.0 mm
12:14 13.9 °C 12.1 °C 1010.0 hPa WSW 11.9 km/h 44.6 km/h 89 % 0.0 mm
12:19 14.0 °C 12.1 °C 1010.0 hPa West 24.8 km/h 42.2 km/h 88 % 0.0 mm
12:24 14.2 °C 12.2 °C 1010.0 hPa WNW 25.6 km/h 41.4 km/h 88 % 0.0 mm
12:29 14.3 °C 12.3 °C 1010.0 hPa WNW 26.2 km/h 36.4 km/h 88 % 0.0 mm
12:34 14.3 °C 12.0 °C 1010.0 hPa West 24.5 km/h 35.6 km/h 86 % 0.0 mm
12:39 14.2 °C 12.1 °C 1010.0 hPa West 28.5 km/h 31.7 km/h 87 % 0.0 mm
12:44 14.3 °C 12.0 °C 1010.0 hPa West 24.5 km/h 36.4 km/h 86 % 0.0 mm
12:49 14.0 °C 11.7 °C 1010.0 hPa West 19.5 km/h 36.4 km/h 86 % 0.0 mm
12:54 13.8 °C 11.5 °C 1010.0 hPa West 20.6 km/h 31.7 km/h 86 % 0.0 mm
12:59 13.7 °C 11.6 °C 1010.0 hPa WSW 25.6 km/h 32.0 km/h 87 % 0.0 mm
13:04 13.7 °C 11.8 °C 1010.0 hPa West 24.8 km/h 36.4 km/h 88 % 0.0 mm
13:09 13.6 °C 11.7 °C 1010.0 hPa West 33.8 km/h 36.4 km/h 88 % 0.0 mm
13:14 13.6 °C 11.7 °C 1010.0 hPa West 27.7 km/h 33.8 km/h 88 % 0.0 mm
13:20 13.7 °C 11.8 °C 1010.0 hPa WSW 26.7 km/h 31.7 km/h 88 % 0.0 mm
13:25 13.8 °C 11.9 °C 1011.1 hPa West 12.6 km/h 32.8 km/h 88 % 0.0 mm
13:30 13.9 °C 11.9 °C 1011.1 hPa West 26.2 km/h 32.8 km/h 88 % 0.0 mm
13:35 13.8 °C 11.9 °C 1011.1 hPa West 29.9 km/h 35.6 km/h 88 % 0.0 mm
13:40 13.9 °C 11.9 °C 1010.0 hPa West 19.8 km/h 35.6 km/h 88 % 0.0 mm
13:45 13.9 °C 11.8 °C 1010.0 hPa WSW 35.6 km/h 37.5 km/h 87 % 0.0 mm
13:50 13.8 °C 11.7 °C 1010.0 hPa West 17.7 km/h 37.5 km/h 87 % 0.0 mm
13:55 13.9 °C 11.9 °C 1011.1 hPa WSW 25.9 km/h 35.6 km/h 88 % 0.0 mm
14:00 14.0 °C 12.1 °C 1011.1 hPa WSW 25.6 km/h 34.3 km/h 88 % 0.0 mm
14:05 14.1 °C 12.2 °C 1011.1 hPa West 20.6 km/h 31.4 km/h 88 % 0.0 mm
14:10 14.2 °C 12.2 °C 1010.0 hPa WSW 22.7 km/h 30.6 km/h 88 % 0.0 mm
14:15 14.2 °C 12.1 °C 1010.0 hPa WSW 24.5 km/h 31.7 km/h 87 % 0.0 mm
14:20 14.3 °C 12.2 °C 1010.0 hPa WSW 23.0 km/h 31.7 km/h 87 % 0.0 mm
14:25 14.2 °C 11.9 °C 1010.0 hPa WSW 26.2 km/h 35.2 km/h 86 % 0.0 mm
14:30 14.1 °C 11.6 °C 1010.0 hPa WSW 25.6 km/h 40.7 km/h 85 % 0.0 mm
14:35 14.0 °C 11.6 °C 1010.0 hPa West 34.6 km/h 40.7 km/h 85 % 0.0 mm
14:40 13.9 °C 11.6 °C 1011.1 hPa West 28.8 km/h 37.8 km/h 86 % 0.0 mm
14:45 13.8 °C 11.5 °C 1011.1 hPa WNW 17.7 km/h 37.8 km/h 86 % 0.0 mm
14:46 13.8 °C 11.5 °C 1011.1 hPa WSW 24.5 km/h 37.8 km/h 86 % 0.0 mm
14:51 13.7 °C 11.2 °C 1011.1 hPa WSW 24.5 km/h 40.4 km/h 85 % 0.0 mm
14:56 13.8 °C 11.5 °C 1010.0 hPa West 17.2 km/h 40.4 km/h 86 % 0.0 mm
15:01 13.7 °C 11.4 °C 1010.0 hPa WSW 27.4 km/h 38.1 km/h 86 % 0.0 mm
15:06 13.7 °C 11.4 °C 1010.0 hPa West 22.4 km/h 35.2 km/h 86 % 0.0 mm
15:11 13.7 °C 11.4 °C 1011.1 hPa WSW 35.2 km/h 35.2 km/h 86 % 0.0 mm
15:16 13.8 °C 11.7 °C 1011.1 hPa West 20.6 km/h 35.2 km/h 87 % 0.0 mm
15:21 13.8 °C 11.7 °C 1011.1 hPa West 19.5 km/h 32.0 km/h 87 % 0.0 mm
15:26 13.7 °C 11.6 °C 1011.1 hPa West 15.8 km/h 32.0 km/h 87 % 0.0 mm
15:31 13.6 °C 11.7 °C 1011.1 hPa WNW 21.2 km/h 36.7 km/h 88 % 0.0 mm
15:36 13.6 °C 11.7 °C 1011.1 hPa WSW 20.1 km/h 36.7 km/h 88 % 0.0 mm
15:41 13.5 °C 11.7 °C 1010.0 hPa West 21.2 km/h 31.7 km/h 89 % 0.0 mm
15:46 13.5 °C 11.7 °C 1010.0 hPa WSW 30.6 km/h 31.7 km/h 89 % 0.0 mm
15:51 13.5 °C 11.7 °C 1010.0 hPa WSW 18.0 km/h 30.6 km/h 89 % 0.0 mm
15:56 13.5 °C 11.7 °C 1010.0 hPa WSW 26.2 km/h 29.9 km/h 89 % 0.0 mm
16:01 13.4 °C 11.7 °C 1010.0 hPa WSW 21.6 km/h 32.0 km/h 89 % 0.0 mm
16:06 13.4 °C 11.7 °C 1010.0 hPa West 30.9 km/h 32.8 km/h 89 % 0.0 mm
16:11 13.3 °C 11.7 °C 1011.1 hPa WSW 27.7 km/h 32.8 km/h 90 % 0.0 mm
16:16 13.2 °C 11.6 °C 1011.1 hPa West 21.2 km/h 35.2 km/h 90 % 0.0 mm
16:21 13.1 °C 11.5 °C 1011.1 hPa WSW 20.6 km/h 35.2 km/h 90 % 0.0 mm
16:26 13.1 °C 11.7 °C 1010.0 hPa West 26.2 km/h 32.8 km/h 91 % 0.0 mm
16:31 13.1 °C 11.6 °C 1010.0 hPa WSW 21.9 km/h 32.8 km/h 91 % 0.0 mm
16:36 13.1 °C 11.6 °C 1010.0 hPa WSW 23.8 km/h 32.8 km/h 91 % 0.0 mm
16:41 12.9 °C 11.5 °C 1010.0 hPa WNW 22.7 km/h 33.8 km/h 91 % 0.0 mm
16:46 12.9 °C 11.5 °C 1010.0 hPa WSW 23.3 km/h 33.8 km/h 91 % 0.0 mm
16:51 12.8 °C 11.6 °C 1010.0 hPa West 22.7 km/h 29.1 km/h 92 % 0.0 mm
16:56 12.7 °C 11.5 °C 1011.1 hPa West 22.4 km/h 30.2 km/h 92 % 0.0 mm
17:01 12.7 °C 11.4 °C 1011.1 hPa West 27.7 km/h 37.0 km/h 92 % 0.0 mm
17:06 12.6 °C 11.4 °C 1011.1 hPa WSW 20.6 km/h 37.0 km/h 93 % 0.0 mm
17:11 12.6 °C 11.4 °C 1011.1 hPa West 20.1 km/h 30.9 km/h 93 % 0.0 mm
17:16 12.4 °C 11.3 °C 1011.1 hPa WSW 21.2 km/h 31.7 km/h 93 % 0.0 mm
17:21 12.3 °C 11.4 °C 1011.1 hPa WSW 13.7 km/h 31.7 km/h 94 % 0.0 mm
17:26 12.2 °C 11.3 °C 1010.0 hPa WSW 15.8 km/h 24.8 km/h 94 % 0.0 mm
17:31 12.2 °C 11.5 °C 1010.0 hPa WSW 16.6 km/h 25.6 km/h 95 % 0.0 mm
17:36 12.2 °C 11.4 °C 1010.0 hPa West 25.6 km/h 28.0 km/h 95 % 0.0 mm
17:41 12.2 °C 11.6 °C 1010.0 hPa WSW 17.7 km/h 28.5 km/h 96 % 0.0 mm
17:46 12.1 °C 11.4 °C 1010.0 hPa West 17.7 km/h 28.5 km/h 96 % 0.0 mm
17:47 12.1 °C 11.4 °C 1010.0 hPa WSW 19.8 km/h 26.7 km/h 96 % 0.0 mm
17:52 12.1 °C 11.4 °C 1011.1 hPa WSW 24.8 km/h 24.8 km/h 96 % 0.0 mm
17:57 11.9 °C 11.3 °C 1011.1 hPa WSW 22.4 km/h 27.7 km/h 96 % 0.0 mm
18:02 11.9 °C 11.5 °C 1011.1 hPa WSW 17.7 km/h 27.7 km/h 97 % 0.0 mm
18:07 11.8 °C 11.4 °C 1010.0 hPa WSW 23.0 km/h 28.0 km/h 97 % 0.0 mm
18:12 11.8 °C 11.4 °C 1010.0 hPa West 27.7 km/h 28.0 km/h 97 % 0.0 mm
18:17 11.8 °C 11.3 °C 1010.0 hPa WSW 21.9 km/h 28.5 km/h 97 % 0.0 mm
18:23 11.8 °C 11.3 °C 1012.1 hPa West 23.0 km/h 28.5 km/h 97 % 0.0 mm
18:28 11.8 °C 11.3 °C 1012.1 hPa West 20.1 km/h 27.7 km/h 97 % 0.0 mm
18:33 11.8 °C 11.3 °C 1012.1 hPa West 20.6 km/h 27.4 km/h 97 % 0.0 mm
18:38 11.8 °C 11.3 °C 1011.1 hPa West 23.8 km/h 30.2 km/h 97 % 0.0 mm
18:43 11.8 °C 11.3 °C 1011.1 hPa West 23.8 km/h 32.8 km/h 97 % 0.0 mm
18:48 11.8 °C 11.3 °C 1011.1 hPa WSW 26.2 km/h 32.8 km/h 97 % 0.0 mm
18:53 11.7 °C 11.2 °C 1012.1 hPa West 24.8 km/h 27.7 km/h 97 % 0.0 mm
18:58 11.7 °C 11.2 °C 1012.1 hPa West 20.6 km/h 26.2 km/h 97 % 0.0 mm
19:03 11.7 °C 11.2 °C 1012.1 hPa WSW 17.7 km/h 32.0 km/h 97 % 0.0 mm
19:08 11.7 °C 11.2 °C 1010.0 hPa WSW 21.6 km/h 32.0 km/h 97 % 0.0 mm
19:13 11.7 °C 11.2 °C 1010.0 hPa WSW 19.8 km/h 26.7 km/h 97 % 0.0 mm
19:18 11.6 °C 11.1 °C 1010.0 hPa WSW 17.2 km/h 25.3 km/h 97 % 0.0 mm
19:23 11.6 °C 11.1 °C 1011.1 hPa WSW 14.0 km/h 25.3 km/h 97 % 0.0 mm
19:28 11.4 °C 11.2 °C 1011.1 hPa WSW 14.0 km/h 23.8 km/h 98 % 0.0 mm
19:33 11.4 °C 11.2 °C 1011.1 hPa WSW 15.8 km/h 23.8 km/h 98 % 0.0 mm
19:38 11.4 °C 11.2 °C 1011.1 hPa WSW 16.3 km/h 21.2 km/h 98 % 0.0 mm
19:43 11.4 °C 11.2 °C 1011.1 hPa WSW 17.2 km/h 24.5 km/h 98 % 0.0 mm
19:48 11.4 °C 11.2 °C 1011.1 hPa WSW 17.7 km/h 24.5 km/h 98 % 0.0 mm
19:53 11.6 °C 11.3 °C 1010.0 hPa West 18.3 km/h 21.6 km/h 98 % 0.0 mm
19:58 11.6 °C 11.3 °C 1010.0 hPa WSW 16.9 km/h 21.6 km/h 98 % 0.0 mm
20:03 11.6 °C 11.3 °C 1010.0 hPa WSW 13.7 km/h 21.2 km/h 98 % 0.0 mm
20:08 11.6 °C 11.3 °C 1011.1 hPa WSW 16.3 km/h 21.2 km/h 98 % 0.0 mm
20:13 11.6 °C 11.3 °C 1011.1 hPa WSW 13.7 km/h 23.3 km/h 98 % 0.0 mm
20:18 11.4 °C 11.2 °C 1011.1 hPa WSW 13.0 km/h 23.3 km/h 98 % 0.0 mm
20:23 11.4 °C 11.2 °C 1010.0 hPa WSW 18.0 km/h 21.2 km/h 98 % 0.0 mm
20:28 11.4 °C 11.2 °C 1010.0 hPa WSW 20.9 km/h 20.9 km/h 98 % 0.0 mm
20:33 11.4 °C 11.2 °C 1010.0 hPa West 20.6 km/h 20.9 km/h 98 % 0.0 mm
20:38 11.4 °C 11.2 °C 1010.0 hPa WSW 19.1 km/h 21.2 km/h 98 % 0.0 mm
20:43 11.6 °C 11.3 °C 1010.0 hPa WSW 19.8 km/h 24.5 km/h 98 % 0.0 mm
20:48 11.6 °C 11.3 °C 1010.0 hPa WSW 16.9 km/h 24.5 km/h 98 % 0.0 mm
20:53 11.6 °C 11.1 °C 1011.1 hPa WSW 16.3 km/h 21.9 km/h 97 % 0.0 mm
20:58 11.6 °C 11.1 °C 1011.1 hPa West 19.8 km/h 21.9 km/h 97 % 0.0 mm
21:03 11.6 °C 11.1 °C 1011.1 hPa WSW 16.6 km/h 28.5 km/h 97 % 0.0 mm
21:08 11.6 °C 11.3 °C 1011.1 hPa West 17.2 km/h 28.5 km/h 98 % 0.0 mm
21:13 11.6 °C 11.3 °C 1011.1 hPa West 17.2 km/h 27.4 km/h 98 % 0.0 mm
21:18 11.6 °C 11.3 °C 1011.1 hPa WSW 19.1 km/h 28.5 km/h 98 % 0.0 mm
21:23 11.6 °C 11.3 °C 1011.1 hPa West 27.0 km/h 32.0 km/h 98 % 0.0 mm
21:28 11.6 °C 11.1 °C 1011.1 hPa WSW 21.6 km/h 32.0 km/h 97 % 0.0 mm
21:33 11.6 °C 11.1 °C 1011.1 hPa West 20.6 km/h 32.0 km/h 97 % 0.0 mm
21:38 11.6 °C 11.1 °C 1011.1 hPa WSW 20.1 km/h 29.9 km/h 97 % 0.0 mm
21:43 11.6 °C 11.1 °C 1011.1 hPa WSW 19.8 km/h 28.5 km/h 97 % 0.0 mm
21:48 11.6 °C 11.1 °C 1011.1 hPa West 24.5 km/h 28.5 km/h 97 % 0.0 mm
21:54 11.6 °C 11.1 °C 1012.1 hPa West 23.0 km/h 29.1 km/h 97 % 0.0 mm
21:59 11.6 °C 11.1 °C 1012.1 hPa West 13.0 km/h 29.1 km/h 97 % 0.0 mm
22:04 11.4 °C 11.0 °C 1012.1 hPa WSW 20.1 km/h 27.7 km/h 97 % 0.0 mm
22:09 11.4 °C 11.2 °C 1012.1 hPa WSW 21.2 km/h 27.7 km/h 98 % 0.0 mm
22:14 11.4 °C 11.2 °C 1012.1 hPa West 20.1 km/h 27.4 km/h 98 % 0.0 mm
22:19 11.4 °C 11.2 °C 1012.1 hPa West 24.8 km/h 27.7 km/h 98 % 0.0 mm
22:24 11.4 °C 11.2 °C 1012.1 hPa WSW 15.4 km/h 28.5 km/h 98 % 0.0 mm
22:29 11.4 °C 11.0 °C 1012.1 hPa West 25.6 km/h 28.5 km/h 97 % 0.0 mm
22:34 11.4 °C 11.2 °C 1012.1 hPa WSW 22.4 km/h 28.5 km/h 98 % 0.0 mm
22:39 11.4 °C 11.2 °C 1012.1 hPa West 17.7 km/h 28.8 km/h 98 % 0.0 mm
22:44 11.4 °C 11.0 °C 1012.1 hPa West 24.8 km/h 32.0 km/h 97 % 0.0 mm
22:49 11.4 °C 11.0 °C 1012.1 hPa West 28.0 km/h 32.3 km/h 97 % 0.0 mm
22:54 11.4 °C 11.0 °C 1012.1 hPa WSW 19.8 km/h 32.3 km/h 97 % 0.0 mm
22:59 11.4 °C 11.0 °C 1012.1 hPa West 24.8 km/h 29.9 km/h 97 % 0.0 mm
23:04 11.4 °C 11.0 °C 1012.1 hPa WSW 24.8 km/h 28.8 km/h 97 % 0.0 mm
23:09 11.4 °C 11.0 °C 1011.1 hPa West 20.1 km/h 28.8 km/h 97 % 0.0 mm
23:14 11.4 °C 11.0 °C 1011.1 hPa WSW 19.8 km/h 27.4 km/h 97 % 0.0 mm
23:19 11.4 °C 11.0 °C 1011.1 hPa WSW 16.3 km/h 27.4 km/h 97 % 0.0 mm
23:24 11.4 °C 11.0 °C 1012.1 hPa West 19.1 km/h 31.7 km/h 97 % 0.0 mm
23:29 11.4 °C 11.0 °C 1012.1 hPa WSW 21.9 km/h 31.7 km/h 97 % 0.0 mm
23:34 11.4 °C 11.0 °C 1012.1 hPa WSW 14.0 km/h 28.0 km/h 97 % 0.0 mm
23:39 11.4 °C 11.2 °C 1012.1 hPa West 21.2 km/h 31.7 km/h 98 % 0.0 mm
23:44 11.4 °C 11.2 °C 1012.1 hPa WSW 23.8 km/h 31.7 km/h 98 % 0.0 mm
23:49 11.4 °C 11.1 °C 1012.1 hPa WSW 25.3 km/h 28.0 km/h 98 % 0.0 mm
23:55 11.4 °C 11.1 °C 1012.1 hPa West 17.7 km/h 25.3 km/h 98 % 0.0 mm
Le Gheer Warneton
Courtoisie de Weather Underground - 2.5 mb

Mise a jour : 18/12/2017 03:58:13
Généré par Cumulus 1.9.4 (1099)